Orbital Elements at Epoch 2459200.5 (2020-Dec-17.0) TDB
Reference: JPL 30 (heliocentric ecliptic J2000)
Element | Value | Uncertainty (1-sigma) | Units |
e | .1473988252251569 | 3.9912e-08 | |
a | 3.0861233649445 | 1.9417e-08 | au |
q | 2.631232406451772 | 1.168e-07 | au |
i | 20.66689996899403 | 2.9511e-06 | deg |
node | 292.0839318729699 | 1.3977e-05 | deg |
peri | 340.6318069447821 | 2.1961e-05 | deg |
M | 108.1476620204479 | 1.8615e-05 | deg |
tp | 2458605.615045509455 (2019-May-02.11504551) | 0.00010114 | TDB |
period | 1980.242379868594 5.42 | 1.8689e-05 5.117e-08 | d yr |
n | .1817959274378771 | 1.7158e-09 | deg/d |
Q | 3.541014323437228 | 2.228e-08 | au |
|
| | Orbit Determination Parameters
Additional Information
|